Location: West Cummington
(42.4920°N, 72.9680°W)
Time: 23:35:29
(UTC-05:00)

ATLAS 2AS CENTAUR R/B - Visible Passes

Search period start: 24 February 2017 00:00
Search period end: 06 March 2017 00:00
Orbit: 907 x 1305 km, 63.7° (Epoch: 18 February)

Date Brightness Start Highest point End Pass type
(mag) Time Alt. Az. Time Alt. Az. Time Alt. Az.
24 Feb 4.7 19:13:52 10° NNW 19:19:10 18° NNE 19:22:51 14° NE visible
24 Feb 4.1 21:05:05 10° NNW 21:10:18 34° N 21:10:18 34° N visible
24 Feb 5.2 22:56:14 10° NW 22:57:44 17° NW 22:57:44 17° NW visible
25 Feb 4.8 18:28:33 10° NNW 18:33:21 16° N 18:38:06 10° NE visible
25 Feb 4.0 20:20:18 10° NNW 20:27:03 31° NNE 20:27:03 31° NNE visible
25 Feb 4.6 22:11:14 10° NW 22:14:30 27° NW 22:14:30 27° NW visible
26 Feb 4.3 19:35:29 10° NNW 19:41:50 24° NNE 19:43:50 22° NE visible
26 Feb 4.0 21:26:22 10° NNW 21:31:16 39° NNW 21:31:16 39° NNW visible
26 Feb 5.4 23:18:18 10° NW 23:18:43 11° NW 23:18:43 11° NW visible
27 Feb 4.6 18:50:32 10° NNW 18:56:12 20° NNE 19:00:38 13° ENE visible
27 Feb 3.6 20:41:34 10° NNW 20:48:05 45° NNE 20:48:05 45° NNE visible
27 Feb 4.9 22:32:55 10° NW 22:35:32 22° NW 22:35:32 22° NW visible
28 Feb 4.7 18:05:23 10° NNW 18:10:27 17° NNE 18:15:26 10° NE visible
28 Feb 3.7 19:56:48 10° NNW 20:04:10 36° NE 20:04:56 35° NE visible
28 Feb 4.2 21:47:50 10° NW 21:52:23 37° NW 21:52:23 37° NW visible
01 Mar 4.1 19:12:00 10° NNW 19:18:46 28° NNE 19:21:49 22° ENE visible
01 Mar 3.4 21:02:54 10° NW 21:09:16 59° NNW 21:09:16 59° NNW visible
01 Mar 5.3 22:55:22 10° WNW 22:56:43 14° WNW 22:56:43 14° WNW visible
02 Mar 4.4 18:27:08 10° NNW 18:33:13 22° NNE 18:38:44 11° ENE visible
02 Mar 3.1 20:18:04 10° NNW 20:26:04 59° NE 20:26:11 59° NE visible
02 Mar 4.6 22:09:43 10° NW 22:13:39 26° WNW 22:13:39 26° WNW visible
03 Mar 3.5 19:33:17 10° NNW 19:40:56 43° NE 19:43:10 36° E visible
03 Mar 3.7 21:24:28 10° NW 21:30:38 47° W 21:30:38 47° W visible
04 Mar 3.9 18:48:30 10° NNW 18:55:38 32° NE 19:00:12 19° E visible
04 Mar 2.9 20:39:27 10° NW 20:47:32 80° WSW 20:47:40 80° SW visible
04 Mar 5.1 22:32:46 10° WNW 22:35:08 15° W 22:35:08 15° W visible
05 Mar 4.2 18:03:41 10° NNW 18:10:10 25° NNE 18:16:25 10° E visible
05 Mar 2.9 19:54:34 10° NNW 20:02:41 73° NE 20:04:46 51° ESE visible
05 Mar 4.5 21:46:39 10° NW 21:52:15 27° W 21:52:15 27° W visible
